Weather History for KONL - September, 2013

Change the Weather History Date:

Monday, September 23, 2013

  Actual Average Record
Temperature  
Mean Temperature 68 °F -  
Max Temperature 78 °F 73 °F 87 °F (2007)
Min Temperature 59 °F 43 °F 30 °F (1983)
Cooling Degree Days 3    
Growing Degree Days 18 (Base 50)    
Moisture  
Dew Point 49 °F    
Average Humidity 58    
Maximum Humidity 87    
Minimum Humidity 29    
Precipitation  
Precipitation 0.05 in - - ()
Sea Level Pressure  
Sea Level Pressure 29.70 in    
Wind  
Wind Speed 16 mph (SSE)    
Max Wind Speed 25 mph    
Max Gust Speed 33 mph    
Visibility 10 miles    
Events Rain , Thunderstorm    
Averages and records for this station are not official NWS values.
T = Trace of Precipitation, MM = Missing Value Source: NWS Daily Summary

Daily Weather History Graph

Daily Weather History Graph

Search for Another Location

Airport or City:

Trip Planner

Search our weather history database for the weather conditions in past years. The results will help you decide how hot, cold, wet, or windy it might be!

Date:

Astronomy

Sep. 23, 2013 Rise Set
Actual Time 7:23 AM CDT 7:29 PM CDT
Civil Twilight 6:55 AM CDT 7:57 PM CDT
Nautical Twilight 6:22 AM CDT 8:30 PM CDT
Astronomical Twilight 5:48 AM CDT 9:04 PM CDT
Moon 9:57 PM CDT (9/23) 11:49 AM CDT (9/23)
Length of Visible Light 13h 02m
Length of Day
12h 06m
Waning Gibbous, 81% of the Moon is Illuminated
Sep 23
Waning Gibbous
Sep 26
Last Quarter
Oct 4
New
Oct 11
First Quarter
Oct 18
Full

Hourly Weather History & Observations

Time (CDT) Temp. Dew Point Humidity Pressure Visibility Wind Dir Wind Speed Gust Speed Precip Events Conditions
12:15 AM 65.7 °F 46.6 °F 50% 29.70 in 10.0 mi SSE 20.7 mph 26.5 mph N/A   Clear
12:35 AM 64.9 °F 46.6 °F 51% 29.70 in 10.0 mi SSE 19.6 mph - N/A   Clear
12:55 AM 64.2 °F 46.6 °F 53% 29.70 in 10.0 mi SSE 16.1 mph 24.2 mph N/A   Clear
1:15 AM 63.7 °F 46.4 °F 53% 29.70 in 10.0 mi SSE 18.4 mph 24.2 mph N/A   Clear
1:35 AM 63.5 °F 46.4 °F 54% 29.69 in 10.0 mi SSE 18.4 mph 23.0 mph N/A   Clear
1:55 AM 63.0 °F 46.4 °F 55% 29.69 in 10.0 mi SSE 15.0 mph 23.0 mph N/A   Clear
2:15 AM 62.8 °F 46.0 °F 54% 29.69 in 10.0 mi SSE 17.3 mph 27.6 mph N/A   Clear
2:35 AM 62.6 °F 46.0 °F 55% 29.69 in 10.0 mi SSE 18.4 mph 25.3 mph N/A   Clear
2:55 AM 61.9 °F 46.0 °F 56% 29.69 in 10.0 mi SSE 16.1 mph 23.0 mph N/A   Clear
3:15 AM 61.7 °F 45.9 °F 56% 29.67 in 10.0 mi SSE 17.3 mph 24.2 mph N/A   Clear
3:35 AM 61.0 °F 46.0 °F 58% 29.66 in 10.0 mi SSE 15.0 mph 21.9 mph N/A   Clear
3:55 AM 60.8 °F 46.4 °F 59% 29.66 in 10.0 mi SSE 17.3 mph 24.2 mph N/A   Clear
4:15 AM 59.9 °F 46.4 °F 61% 29.66 in 10.0 mi SSE 16.1 mph 25.3 mph N/A   Clear
4:35 AM 59.9 °F 46.4 °F 61% 29.66 in 10.0 mi SSE 17.3 mph 23.0 mph N/A   Clear
4:55 AM 59.5 °F 46.4 °F 62% 29.65 in 10.0 mi SSE 17.3 mph 23.0 mph N/A   Clear
5:15 AM 59.2 °F 46.4 °F 63% 29.66 in 10.0 mi SSE 17.3 mph 21.9 mph N/A   Clear
5:35 AM 59.4 °F 46.0 °F 61% 29.66 in 10.0 mi SSE 15.0 mph 23.0 mph N/A   Clear
5:55 AM 59.2 °F 46.0 °F 62% 29.66 in 10.0 mi SSE 16.1 mph 23.0 mph N/A   Clear
6:15 AM 59.7 °F 45.9 °F 60% 29.66 in 10.0 mi SSE 18.4 mph 26.5 mph N/A   Clear
6:35 AM 59.4 °F 45.9 °F 61% 29.66 in 10.0 mi SSE 19.6 mph 28.8 mph N/A   Clear
6:55 AM 59.0 °F 46.0 °F 62% 29.66 in 10.0 mi SSE 19.6 mph 26.5 mph N/A   Clear
7:15 AM 59.0 °F 45.9 °F 62% 29.66 in 10.0 mi SSE 17.3 mph 26.5 mph N/A   Clear
7:35 AM 59.0 °F 45.9 °F 62% 29.67 in 10.0 mi SSE 17.3 mph 21.9 mph N/A   Clear
7:55 AM 59.5 °F 45.9 °F 61% 29.67 in 10.0 mi SSE 16.1 mph 24.2 mph N/A   Clear
8:15 AM 59.9 °F 46.0 °F 60% 29.67 in 10.0 mi SSE 18.4 mph 24.2 mph N/A   Clear
8:35 AM 60.8 °F 45.9 °F 58% 29.67 in 10.0 mi SSE 17.3 mph 29.9 mph N/A   Clear
8:55 AM 61.9 °F 46.4 °F 57% 29.67 in 10.0 mi SSE 16.1 mph 23.0 mph N/A   Clear
9:15 AM 63.0 °F 46.0 °F 54% 29.67 in 10.0 mi SSE 21.9 mph 27.6 mph N/A   Clear
9:35 AM 64.4 °F 46.0 °F 51% 29.67 in 10.0 mi SSE 18.4 mph 32.2 mph N/A   Clear
9:55 AM 65.7 °F 45.7 °F 48% 29.67 in 10.0 mi South 21.9 mph 32.2 mph N/A   Clear
10:15 AM 68.0 °F 45.3 °F 44% 29.67 in 10.0 mi South 21.9 mph 29.9 mph N/A   Clear
10:35 AM 67.6 °F 45.1 °F 44% 29.68 in 10.0 mi SSE 21.9 mph 28.8 mph N/A   Clear
10:55 AM 68.2 °F 45.9 °F 45% 29.68 in 10.0 mi SSE 20.7 mph 27.6 mph N/A   Clear
11:15 AM 70.7 °F 45.7 °F 41% 29.67 in 10.0 mi SSE 20.7 mph 27.6 mph N/A   Clear
11:35 AM 71.6 °F 44.8 °F 38% 29.67 in 10.0 mi SSE 21.9 mph 31.1 mph N/A   Clear
11:55 AM 73.4 °F 44.8 °F 36% 29.67 in 10.0 mi South 25.3 mph 31.1 mph N/A   Clear
12:15 PM 74.7 °F 44.4 °F 34% 29.66 in 10.0 mi SSE 21.9 mph 27.6 mph N/A   Clear
12:35 PM 77.0 °F 42.8 °F 29% 29.66 in 10.0 mi South 24.2 mph 33.4 mph N/A   Clear
12:55 PM 77.5 °F 42.4 °F 29% 29.66 in 10.0 mi South 24.2 mph 32.2 mph N/A   Clear
1:15 PM 77.2 °F 42.6 °F 29% 29.67 in 10.0 mi South 21.9 mph 29.9 mph N/A   Clear
1:35 PM 76.8 °F 42.8 °F 30% 29.67 in 10.0 mi SSE 21.9 mph 28.8 mph N/A   Clear
1:55 PM 75.2 °F 43.5 °F 32% 29.66 in 10.0 mi SSE 17.3 mph 28.8 mph N/A   Scattered Clouds
2:15 PM 75.7 °F 44.2 °F 32% 29.66 in 10.0 mi SSE 16.1 mph 25.3 mph N/A   Scattered Clouds
2:35 PM 75.4 °F 43.2 °F 32% 29.69 in 10.0 mi SSE 21.9 mph 31.1 mph N/A   Scattered Clouds
2:55 PM 73.9 °F 43.0 °F 33% 29.69 in 10.0 mi South 18.4 mph 28.8 mph N/A   Mostly Cloudy
3:15 PM 72.7 °F 44.8 °F 37% 29.69 in 10.0 mi South 12.7 mph 21.9 mph N/A   Overcast
3:35 PM 72.7 °F 45.9 °F 38% 29.69 in 10.0 mi South 13.8 mph 19.6 mph N/A   Overcast
3:55 PM 69.8 °F 50.7 °F 51% 29.69 in 10.0 mi SSE 13.8 mph 19.6 mph N/A Rain Light Rain
4:15 PM 65.3 °F 54.1 °F 67% 29.71 in 10.0 mi SE 10.4 mph - N/A Rain Light Rain
4:35 PM 65.3 °F 55.0 °F 69% 29.70 in 10.0 mi SE 6.9 mph - N/A Rain , Thunderstorm Light Thunderstorms and Rain
4:55 PM 63.3 °F 55.4 °F 75% 29.71 in 7.0 mi SSE 9.2 mph - 0.03 in Rain Light Rain
5:15 PM 63.5 °F 55.9 °F 76% 29.71 in 10.0 mi ESE 5.8 mph - N/A Rain Light Rain
5:35 PM 63.9 °F 55.2 °F 73% 29.71 in 10.0 mi ESE 8.1 mph - N/A   Overcast
5:55 PM 63.9 °F 55.6 °F 74% 29.70 in 10.0 mi ESE 5.8 mph - N/A   Scattered Clouds
6:15 PM 64.2 °F 55.6 °F 73% 29.71 in 10.0 mi ESE 5.8 mph - N/A   Clear
6:35 PM 63.9 °F 55.9 °F 75% 29.71 in 10.0 mi Calm Calm - N/A   Mostly Cloudy
6:55 PM 63.9 °F 56.3 °F 76% 29.72 in 10.0 mi Calm Calm - N/A   Overcast
7:15 PM 64.0 °F 56.5 °F 76% 29.72 in 10.0 mi Calm Calm - N/A   Overcast
7:35 PM 63.5 °F 55.8 °F 76% 29.73 in 10.0 mi East 4.6 mph - N/A   Overcast
7:55 PM 65.3 °F 52.7 °F 64% 29.74 in 10.0 mi SSE 9.2 mph - N/A   Overcast
8:15 PM 64.4 °F 51.4 °F 63% 29.75 in 10.0 mi SSE 9.2 mph - N/A   Overcast
8:35 PM 62.2 °F 52.0 °F 69% 29.77 in 10.0 mi SE 8.1 mph - N/A   Drizzle
8:55 PM 61.9 °F 52.7 °F 72% 29.78 in 10.0 mi SE 5.8 mph - N/A   Light Drizzle
9:15 PM 61.3 °F 53.1 °F 74% 29.78 in 10.0 mi SE 5.8 mph - N/A   Light Drizzle
9:35 PM 60.4 °F 54.1 °F 80% 29.79 in 10.0 mi SE 3.5 mph - N/A Rain Rain
9:55 PM 60.3 °F 54.5 °F 81% 29.80 in 10.0 mi SE 4.6 mph - 0.01 in   Light Drizzle
10:15 PM 60.1 °F 54.7 °F 82% 29.80 in 10.0 mi SE 5.8 mph - N/A Rain Light Rain
10:35 PM 60.4 °F 54.7 °F 81% 29.81 in 10.0 mi ESE 9.2 mph - N/A   Drizzle
10:55 PM 60.1 °F 54.9 °F 83% 29.81 in 10.0 mi ESE 8.1 mph - N/A   Light Drizzle
11:15 PM 59.5 °F 55.0 °F 85% 29.82 in 10.0 mi East 3.5 mph - 0.01 in   Drizzle
11:35 PM 59.0 °F 55.0 °F 87% 29.82 in 10.0 mi East 3.5 mph - 0.01 in   Light Drizzle
11:55 PM 59.0 °F 54.3 °F 84% 29.81 in 10.0 mi ESE 6.9 mph - 0.01 in   Overcast